User: anonymous   Login
Location: Unspecified
(0.0000°N, 0.0000°E)
Time: 08:27:57
(UTC+00:00)
Language:

E-STAR-II - Orbit

View from above orbital plane
View from above orbital plane
View from above satellite
View from above satellite

Ground track
Ground track

The orbit data is extracted from the following two-line orbital elements,

1 41459U 16025D   19345.85263811 +.00001017 +00000-0 +55160-4 0  9993
2 41459 098.1009 081.2296 0168039 126.0058 235.6859 15.05903488199054
Epoch (UTC): 11 December 2019 20:27:47
Eccentricity: 0.0168039
inclination: 98.1009°
perigee height: 432 km
apogee height: 665 km
right ascension of ascending node: 81.2296°
argument of perigee: 126.0058°
revolutions per day: 15.05903488
mean anomaly at epoch: 235.6859°
orbit number at epoch: 19905

The dashed part of the orbit path shows where the satellite is in the earth's shadow,  

DLR